Location: Dal�� Lhota
(48.7500°N, 14.0167°E)
Time: 18:34:41
(UTC+00:00)

Explorer 7 - Pass Details

Date: 03 August 2021
Orbit: 484 x 676 km, 50.3° (Epoch: 20 September)

Event Time Altitude Azimuth Distance (km) Brightness Sun altitude
Rises 05:24:24 0° 263° (W) 2,572 9.6 15.3°
Reaches altitude 10° 05:26:33 10° 265° (W) 1,707 8.8 15.7°
Maximum altitude 05:30:24 75° 352° (N) 541 7.1 16.3°
Drops below altitude 10° 05:34:29 10° 78° (ENE) 1,802 12.0 17.0°
Sets 05:36:47 0° 80° (E) 2,729 12.1 17.3°
